Home   Weather   New Paris   Past weeks
Flag for USA

Past Weather in New Paris, Pennsylvania, USA — Yesterday and Last 2 Weeks

Currently: 46 °F. Clear. (Weather station: Bedford County Airport, USA). See more current weather

Past Weather in New Paris — Graph

°F

New Paris Temperature Yesterday

Maximum temperature yesterday: 54 °F (at 5:35 pm)
Minimum temperature yesterday: 51 °F (at 12:55 pm)
Average temperature yesterday: 52 °F

High & Low Weather Summary for the Past Weeks

 TemperatureHumidityPressure
High81 °F (Sep 18, 2:35 pm)98% (Sep 18, 6:15 am)30.44 "Hg (Sep 18, 6:15 am)
Low36 °F (Sep 30, 5:35 am)40% (Sep 26, 2:55 pm)29.61 "Hg (Sep 25, 4:15 pm)
Average56 °F80%30.03 "Hg
* Reported Sep 18 3:35 am — Oct 3 3:15 am, New Paris. Weather by CustomWeather, © 2022

Note: Actual official high and low records may vary slightly from our data, if they occured in-between our weather recording intervals... More about our weather records

New Paris Weather History for the Previous 24 Hours

Scroll right to see more
 ConditionsComfort  
Time TempWeatherWind HumidityBarometerVisibility
3:15 am
Mon, Oct 3
46 °FPassing clouds.8 mph93%30.23 "Hg10 mi
2:35 am47 °FPassing clouds.10 mph92%30.23 "Hg10 mi
2:15 am48 °FPassing clouds.10 mph85%30.23 "Hg10 mi
1:55 am48 °FMostly cloudy.9 mph85%30.23 "Hg10 mi
1:35 am48 °FMostly cloudy.8 mph90%30.23 "Hg10 mi
1:15 am49 °FMostly cloudy.8 mph87%30.23 "Hg10 mi
12:55 am49 °FOvercast.7 mph86%30.23 "Hg10 mi
12:35 am49 °FPartly cloudy.10 mph88%30.23 "Hg10 mi
12:15 am50 °FPartly cloudy.8 mph83%30.23 "Hg10 mi
11:55 pm
Sun, Oct 2
51 °FPartly cloudy.7 mph79%30.23 "Hg10 mi
11:35 pm51 °FOvercast.8 mph79%30.23 "Hg10 mi
11:15 pm51 °FPartly cloudy.6 mph81%30.23 "Hg10 mi
10:55 pm51 °FPartly cloudy.6 mph79%30.22 "Hg10 mi
10:35 pm52 °FMostly cloudy.6 mph77%30.23 "Hg10 mi
10:15 pm53 °FMostly cloudy.5 mph76%30.23 "Hg10 mi
9:35 pm53 °FOvercast.3 mph83%30.22 "Hg10 mi
8:55 pm54 °FMostly cloudy.5 mph78%30.22 "Hg10 mi
7:35 pm53 °FOvercast.No wind97%30.19 "Hg10 mi
7:15 pm53 °FMostly cloudy.No wind97%30.19 "Hg10 mi
6:55 pm54 °FMostly cloudy.No wind80%30.17 "Hg10 mi
6:15 pm54 °FMore clouds than sun.5 mph80%30.17 "Hg10 mi
5:35 pm54 °FCloudy.9 mph84%30.16 "Hg10 mi
4:55 pm54 °FOvercast.8 mph97%30.16 "Hg10 mi
4:35 pm53 °FMostly cloudy.7 mph96%30.15 "Hg10 mi
4:15 pm51 °FDrizzle. Mostly cloudy.No wind98%30.15 "Hg7 mi
3:55 pm51 °FDrizzle. Overcast.No wind98%30.15 "Hg3 mi
3:35 pm52 °FRain. Mostly cloudy.8 mph97%30.14 "Hg5 mi
3:15 pm51 °FDrizzle. Cloudy.16 mph98%30.13 "Hg5 mi
2:35 pm51 °FHeavy rain. Mostly cloudy.6 mph98%30.14 "Hg5 mi
2:15 pm52 °FLight rain. Overcast.12 mph94%30.14 "Hg10 mi
1:55 pm52 °FOvercast.14 mph94%30.13 "Hg10 mi
1:15 pm51 °FOvercast.9 mph97%30.12 "Hg10 mi
12:55 pm51 °FLight rain. Overcast.9 mph97%30.12 "Hg7 mi
12:35 pm51 °FRain. Overcast.5 mph97%30.12 "Hg7 mi
12:15 pm51 °FRain. Overcast.10 mph98%30.12 "Hg5 mi
11:55 am52 °FOvercast.9 mph93%30.11 "Hg10 mi
11:35 am52 °FOvercast.9 mph91%30.10 "Hg10 mi
10:55 am52 °FOvercast.12 mph93%30.09 "Hg10 mi
10:35 am52 °FOvercast.9 mph94%30.09 "Hg10 mi
10:15 am52 °FOvercast.12 mph95%30.08 "Hg10 mi
9:55 am52 °FOvercast.8 mph97%30.08 "Hg10 mi
9:35 am52 °FDrizzle. Overcast.8 mph97%30.07 "Hg10 mi
9:15 am52 °FOvercast.13 mph97%30.06 "Hg10 mi
8:55 am52 °FOvercast.15 mph97%30.05 "Hg10 mi
8:35 am51 °FOvercast.13 mph98%30.05 "Hg10 mi
8:15 am51 °FDrizzle. Overcast.10 mph98%30.04 "Hg5 mi
7:55 am51 °FDrizzle. Overcast.7 mph98%30.04 "Hg5 mi
7:15 am52 °FRain. Overcast.10 mph97%30.01 "Hg7 mi
6:55 am53 °FLight rain. Overcast.15 mph97%30.01 "Hg10 mi
6:35 am52 °FLight rain. Overcast.15 mph97%30.00 "Hg10 mi
6:15 am52 °FDrizzle. Overcast.6 mph98%30.00 "Hg10 mi
5:55 am52 °FRain. Overcast.8 mph98%29.99 "Hg10 mi
5:15 am52 °FRain. Overcast.9 mph97%29.99 "Hg7 mi
4:55 am53 °FDrizzle. Overcast.10 mph97%29.98 "Hg7 mi
4:35 am53 °FDrizzle. Overcast.12 mph97%29.97 "Hg10 mi
4:15 am53 °FRain. Overcast.10 mph97%29.98 "Hg10 mi
Weather by CustomWeather, © 2022

See weather overview